Location: Naloco
(16.5478°S, 37.1017°E)
Time: 01:01:44
(UTC+00:00)

DMSP B5D2-2 - Pass Details

Date: 13 August 2020
Orbit: 791 x 805 km, 98.3° (Epoch: 23 September)

Event Time Altitude Azimuth Distance (km) Brightness Sun altitude
Rises 16:58:03 0° 8° (N) 3,290 7.3 -23.2°
Reaches altitude 10° 17:00:22 10° 6° (N) 2,368 6.5 -23.8°
Maximum altitude 17:05:36 73° 282° (WNW) 844 4.2 -25.0°
Drops below altitude 10° 17:10:54 10° 197° (SSW) 2,397 6.6 -26.3°
Sets 17:13:15 0° 195° (SSW) 3,333 7.4 -26.9°
